{"data":{"norad_id":63222,"intl_designator":"2025-052N","name":"AEROCUBE 18B","alt_names":[],"object_type":"PAYLOAD","status":"ACTIVE","operator":null,"country":"US","launch_date":"2025-03-15","launch_site_code":"AFWTR","launch_vehicle":null,"mission":null,"orbit_class":"UNKNOWN","rcs_meters":null,"size_class":null,"mass_kg":null,"dimensions":null,"purposes":[],"wikipedia_slug":null,"has_3d_model":false,"image_url":null,"decayed_at":null,"tle_current":{"epoch":"2026-09-22T16:55:14.966112Z","epoch_age_seconds":120418,"freshness":"FRESH","line1":"1 63222U 25052N   26265.70503433  .00003913  00000+0  15824-3 0  9993","line2":"2 63222  97.3826 157.8900 0005642 129.8126 230.3610 15.25298939 84750","mean_motion":15.25298939,"eccentricity":0.0005642,"inclination_deg":97.3826,"raan_deg":157.89,"arg_perigee_deg":129.8126,"mean_anomaly_deg":230.361,"bstar":0.00015824,"rev_number":8475,"period_min":94.407723180092,"perigee_km":486.0129844001,"apogee_km":493.76286372441,"semimajor_km":6868.0249240623,"source":"CELESTRAK","updated_at":"2026-09-23T09:00:21.901165Z"}}}